This is the latest recevied weather packets stored in our database for station/object EB2EMZ-14. If no packets are shown the sender has not sent any weather packets the latest 10 day(s).
| Time | Temp. | Humidity | Pressure | Rain* | Wind** | Luminosity | Snow |
|---|---|---|---|---|---|---|---|
| 1777426810 | 11.11° C | 89% | 1008.4 hPa | 1.52 mm | - | 0 W/m² | - |
| 1777426510 | 11.11° C | 89% | 1008.4 hPa | 1.52 mm | - | 0 W/m² | - |
| 1777426209 | 11.11° C | 89% | 1008.5 hPa | 1.52 mm | - | 0 W/m² | - |
| 1777425910 | 11.11° C | 89% | 1008.5 hPa | 2.03 mm | - | 0 W/m² | - |
| 1777425609 | 11.11° C | 89% | 1008.7 hPa | 1.52 mm | - | 0 W/m² | - |
| 1777425309 | 11.11° C | 89% | 1009 hPa | 1.52 mm | - | 0 W/m² | - |
| 1777425017 | 11.11° C | 89% | 1009 hPa | 1.52 mm | - | 0 W/m² | - |
| 1777424709 | 11.11° C | 88% | 1009 hPa | 1.52 mm | - | 0 W/m² | - |
| 1777424411 | 11.11° C | 88% | 1009.1 hPa | 1.02 mm | - | 0 W/m² | - |
| 1777424110 | 11.11° C | 88% | 1008.9 hPa | 1.02 mm | - | 0 W/m² | - |
| 1777423810 | 11.11° C | 89% | 1009.1 hPa | 1.02 mm | - | 0 W/m² | - |
| 1777423510 | 11.11° C | 89% | 1009.1 hPa | 0.51 mm | - | 0 W/m² | - |
| 1777423211 | 11.11° C | 89% | 1009.2 hPa | 0.51 mm | - | 0 W/m² | - |
| 1777422912 | 11.11° C | 88% | 1009.2 hPa | 0.51 mm | - | 0 W/m² | - |
| 1777422611 | 11.11° C | 88% | 1009.1 hPa | 0.51 mm | - | 0 W/m² | - |
| 1777422310 | 11.11° C | 88% | 1009.2 hPa | 0 mm | - | 0 W/m² | - |
| 1777422011 | 11.11° C | 88% | 1009.2 hPa | 0 mm | - | 0 W/m² | - |
| 1777421710 | 11.11° C | 89% | 1009.3 hPa | 0 mm | - | 0 W/m² | - |
| 1777421410 | 11.11° C | 88% | 1009.4 hPa | 0 mm | - | 0 W/m² | - |
| 1777421110 | 11.11° C | 88% | 1009.6 hPa | 0.51 mm | - | 0 W/m² | - |
| 1777420811 | 11.11° C | 88% | 1009.6 hPa | 0.51 mm | - | 0 W/m² | - |
| 1777420510 | 11.11° C | 88% | 1009.7 hPa | 0.51 mm | - | 0 W/m² | - |
| 1777420210 | 11.11° C | 88% | 1009.7 hPa | 1.02 mm | - | 0 W/m² | - |
| 1777419911 | 11.11° C | 88% | 1009.7 hPa | 1.02 mm | - | 0 W/m² | - |
| 1777419609 | 11.11° C | 88% | 1009.8 hPa | 1.02 mm | - | 0 W/m² | - |
* Rain latest hour (hover to see other rain measurements)
** Current wind speed in m/s (hover to see current wind gust speed)